Total_Precipitation_Accumulation
0.07 0.07 0.08 0.11 0.11 0.12 0.15 0.23 0.28 0.31 0.37 0.43 0.51 0.58 0.87 1.12 1.23 1.40 1.56 1.78 1.95 2.15 2.23 2.43 2.84 3.11 3.31 3.44 3.68 3.95 4.33 4.72 4.85 4.69 4.64 4.67 4.55 4.38 4.02 3.88 4.01 4.05 3.81 3.83
0.09 0.10 0.10 0.11 0.11 0.12 0.16 0.24 0.32 0.37 0.39 0.42 0.59 0.71 0.92 1.36 1.54 1.52 1.55 1.55 1.59 2.03 2.26 2.50 2.85 3.04 3.01 3.19 3.46 3.86 4.32 4.66 4.59 4.73 4.98 5.00 4.88 4.34 4.04 3.90 3.93 3.80 3.61 3.52
0.09 0.09 0.07 0.08 0.11 0.13 0.17 0.21 0.28 0.35 0.48 0.47 0.61 1.06 1.21 1.49 1.63 1.50 1.44 1.45 1.40 1.60 1.92 2.09 2.31 2.53 2.75 3.16 3.58 3.93 4.26 4.40 4.44 4.69 4.87 4.63 4.49 4.09 4.01 4.00 3.91 3.71 3.59 3.53
0.07 0.08 0.07 0.09 0.12 0.13 0.19 0.17 0.20 0.28 0.48 0.64 0.71 1.39 1.64 1.83 1.73 1.43 1.44 1.48 1.58 1.70 1.78 1.91 1.99 2.32 2.71 3.13 3.71 4.15 4.18 4.26 4.15 4.33 4.51 4.38 4.07 3.85 3.75 3.74 3.55 3.47 3.37 3.31
0.09 0.09 0.10 0.10 0.10 0.10 0.15 0.15 0.17 0.27 0.40 0.64 0.77 1.21 1.70 1.78 1.72 1.36 1.26 1.45 1.67 1.65 1.69 1.93 1.91 2.13 2.42 2.84 3.26 3.70 4.06 4.14 3.98 3.96 4.07 4.23 4.04 3.75 3.52 3.38 3.35 3.34 3.35 3.17
0.11 0.10 0.11 0.11 0.11 0.11 0.12 0.16 0.26 0.39 0.62 1.04 0.81 0.93 1.39 1.65 1.56 1.28 1.27 1.39 1.55 1.70 1.69 1.85 2.14 2.21 2.37 2.65 3.05 3.32 3.54 3.53 3.50 3.49 3.55 3.67 3.72 3.67 3.44 3.25 3.30 3.31 3.22 3.10
0.22 0.23 0.18 0.14 0.14 0.13 0.14 0.28 0.74 1.16 1.43 1.23 0.83 0.92 1.31 1.28 1.09 1.00 1.08 1.33 1.57 1.84 1.84 1.87 2.07 2.21 2.31 2.41 2.62 2.79 2.86 2.91 2.90 2.95 2.95 2.95 3.07 3.16 3.07 3.00 3.07 3.12 3.06 2.97
0.31 0.32 0.23 0.19 0.16 0.16 0.18 0.32 0.78 1.06 1.18 1.08 0.99 1.22 1.31 1.06 0.92 0.93 1.00 1.17 1.45 1.62 1.66 1.75 1.85 1.80 1.81 1.87 2.02 2.17 2.26 2.29 2.27 2.38 2.50 2.51 2.71 2.75 2.79 2.93 2.80 2.85 2.82 2.84
0.19 0.20 0.20 0.19 0.19 0.19 0.25 0.35 0.38 0.60 0.73 1.12 1.33 1.43 1.33 1.01 1.15 1.13 1.21 1.24 1.25 1.32 1.36 1.37 1.40 1.46 1.58 1.62 1.70 1.82 1.92 1.96 1.90 1.99 2.15 2.20 2.27 2.43 2.56 2.67 2.55 2.42 2.50 2.43
0.12 0.16 0.18 0.15 0.15 0.19 0.27 0.40 0.54 0.80 1.08 1.28 1.43 1.70 1.88 1.65 1.61 1.50 1.60 1.74 1.43 1.16 1.18 1.22 1.20 1.25 1.28 1.34 1.49 1.65 1.75 1.93 1.97 1.97 1.99 1.91 2.01 2.15 2.33 2.41 2.27 2.28 2.41 2.40
0.10 0.14 0.19 0.21 0.19 0.23 0.37 0.47 0.57 0.73 0.86 1.17 1.57 1.79 1.53 1.72 1.78 1.70 1.57 1.55 1.40 1.06 0.97 1.07 1.01 1.03 1.10 1.18 1.32 1.49 1.75 1.96 1.94 1.79 1.83 1.91 1.89 1.98 2.08 2.13 2.04 2.15 2.27 2.43
0.14 0.15 0.20 0.25 0.24 0.23 0.32 0.48 0.58 0.77 0.87 0.97 1.25 1.55 1.15 1.35 1.35 1.23 1.26 1.11 1.03 0.96 0.77 0.88 0.94 0.89 0.94 1.00 1.13 1.33 1.55 1.74 1.78 1.73 1.76 1.91 1.96 1.92 1.88 1.84 1.87 1.94 1.99 2.07
0.17 0.21 0.35 0.56 0.51 0.35 0.31 0.33 0.40 0.50 0.67 0.78 1.13 1.46 1.04 1.09 1.16 1.12 1.07 1.04 0.90 0.95 0.86 0.82 0.93 0.96 0.94 0.96 1.09 1.28 1.35 1.56 1.80 1.81 1.83 1.95 1.88 1.78 1.82 1.96 2.02 1.99 2.00 2.03
0.16 0.21 0.32 0.59 0.62 0.49 0.39 0.38 0.39 0.44 0.61 0.64 0.76 1.13 1.12 1.14 1.15 1.19 1.12 0.97 0.84 0.88 0.94 0.87 0.86 0.87 0.80 0.85 1.00 1.17 1.28 1.44 1.63 1.81 1.92 2.05 1.96 1.94 2.02 2.13 2.22 2.17 2.07 2.09
0.16 0.17 0.20 0.29 0.37 0.38 0.35 0.36 0.37 0.40 0.46 0.59 0.67 0.86 1.03 1.04 1.09 1.23 1.12 0.99 0.95 0.86 0.86 0.87 0.81 0.73 0.71 0.74 0.84 1.04 1.23 1.39 1.54 1.81 1.94 2.04 2.10 2.09 2.10 2.11 2.22 2.21 2.10 2.08
0.22 0.23 0.26 0.35 0.39 0.42 0.39 0.38 0.34 0.34 0.32 0.37 0.56 0.84 0.84 0.82 0.88 1.05 1.06 1.12 1.10 0.98 0.82 0.75 0.76 0.77 0.78 0.73 0.75 0.83 1.01 1.22 1.41 1.66 1.83 1.90 2.02 2.14 2.13 2.09 2.16 2.17 2.22 2.26
0.28 0.33 0.43 0.48 0.52 0.61 0.63 0.49 0.47 0.46 0.42 0.47 0.71 0.86 0.73 0.74 0.79 0.83 0.89 1.03 1.02 0.98 1.04 1.04 0.95 0.95 0.87 0.86 0.90 0.91 0.94 1.13 1.35 1.54 1.69 1.82 1.95 2.04 2.08 2.03 2.13 2.26 2.25 2.17
0.33 0.43 0.49 0.52 0.71 1.00 0.75 0.48 0.42 0.43 0.47 0.46 0.57 0.64 0.62 0.68 0.69 0.76 0.89 0.92 0.89 0.80 0.83 0.99 1.05 1.06 1.03 0.96 1.05 1.07 1.09 1.22 1.42 1.61 1.73 1.81 1.96 2.01 2.04 2.02 2.00 2.03 2.03 2.01
0.32 0.48 0.58 0.66 0.80 0.84 0.74 0.59 0.56 0.57 0.63 0.48 0.52 0.60 0.66 0.73 0.79 0.90 0.82 0.79 0.84 0.78 0.86 0.93 1.00 1.08 1.21 1.23 1.26 1.30 1.41 1.51 1.53 1.63 1.77 1.89 1.99 2.02 2.01 2.02 1.98 2.01 2.00 1.94
0.36 0.48 0.66 0.72 0.99 1.10 0.90 0.66 0.66 0.76 1.16 0.79 0.67 0.77 0.85 0.84 1.12 1.19 0.83 0.85 1.00 0.86 0.83 0.92 1.01 1.04 1.20 1.35 1.42 1.45 1.54 1.66 1.62 1.67 1.76 1.88 1.98 2.10 2.06 2.15 2.20 2.16 2.06 1.96
0.70 0.73 0.76 0.78 1.05 1.17 0.82 0.65 0.77 1.43 1.64 0.99 0.86 0.91 0.99 1.04 1.07 1.01 0.85 0.96 1.12 0.98 0.92 0.86 0.97 1.23 1.34 1.43 1.55 1.60 1.56 1.59 1.61 1.74 1.84 1.94 2.03 2.10 2.09 2.15 2.20 2.20 2.13 2.09
1.03 1.02 0.97 1.06 1.40 1.54 0.93 0.85 1.21 1.41 1.12 1.04 0.98 0.93 0.95 0.95 0.92 0.87 0.83 0.91 1.01 1.11 1.17 1.20 1.30 1.42 1.43 1.47 1.62 1.74 1.76 1.70 1.79 1.88 1.87 1.95 2.08 1.93 1.92 2.14 2.21 2.23 2.25 2.21
1.14 1.21 1.28 1.36 1.51 1.36 1.24 1.25 1.26 1.13 1.21 1.16 1.02 0.97 0.93 0.94 0.93 0.95 0.91 0.87 0.98 1.16 1.21 1.25 1.30 1.32 1.38 1.48 1.61 1.83 1.89 1.82 1.81 1.89 1.93 1.95 1.99 2.10 2.16 2.21 2.27 2.24 2.19 2.16
1.32 1.20 1.45 1.62 1.59 1.44 1.46 1.39 1.31 1.25 1.26 1.17 1.07 1.09 1.01 1.04 1.18 1.16 1.11 1.07 0.99 1.01 1.04 1.10 1.22 1.25 1.39 1.55 1.73 1.95 1.99 1.93 1.94 2.02 2.11 2.10 2.06 2.09 2.25 2.41 2.41 2.32 2.18 2.21
1.58 1.56 1.75 2.01 1.92 1.68 1.51 1.31 1.22 1.17 1.12 1.07 1.07 1.13 1.15 1.12 1.25 1.29 1.37 1.37 1.25 1.12 1.12 1.23 1.39 1.49 1.55 1.63 1.69 1.85 2.01 2.11 2.19 2.21 2.21 2.23 2.24 2.28 2.36 2.35 2.33 2.32 2.27 2.21
1.61 1.86 2.16 2.30 1.92 1.74 1.71 1.49 1.41 1.22 1.13 1.11 1.11 1.11 1.16 1.15 1.21 1.21 1.31 1.44 1.42 1.41 1.48 1.46 1.46 1.59 1.66 1.65 1.71 1.83 2.06 2.32 2.52 2.48 2.38 2.38 2.38 2.38 2.37 2.40 2.24 2.10 2.01 1.96